Location: Alphen aan den Rijn
(52.1277°N, 4.6689°E)
Time: 12:09:27
(UTC+01:00)

N. Korean satellite - Visible Passes

Search period start: 23 January 2019 00:00
Search period end: 02 February 2019 00:00
Orbit: 458 x 509 km, 97.2° (Epoch: 22 January)

Date Brightness Start Highest point End Pass type
(mag) Time Alt. Az. Time Alt. Az. Time Alt. Az.
23 Jan 9.3 06:12:59 10° NE 06:15:57 22° E 06:18:51 10° SE visible
23 Jan 7.1 07:46:03 10° N 07:49:31 37° WNW 07:52:56 10° SW visible
23 Jan 8.1 18:26:51 10° S 18:30:22 41° W 18:33:57 10° NNW visible
24 Jan 10.1 05:49:20 10° ENE 05:51:01 13° E 05:52:42 10° ESE visible
24 Jan 6.5 07:21:14 10° N 07:24:56 69° WNW 07:28:34 10° SSW visible
24 Jan 6.9 18:01:56 10° S 18:05:39 78° WSW 18:09:24 10° NNW visible
25 Jan 7.1 06:56:33 10° NNE 07:00:15 64° E 07:03:53 10° S visible
25 Jan 10.0 19:12:32 10° SW 19:14:48 15° W 19:17:04 10° NW visible
26 Jan 8.4 06:32:05 10° NNE 06:35:30 34° E 06:38:50 10° SSE visible
26 Jan 9.1 18:46:44 10° SSW 18:49:54 26° W 18:53:07 10° NW visible
27 Jan 9.5 06:07:54 10° NE 06:10:38 19° E 06:13:20 10° SE visible
27 Jan 7.0 07:40:46 10° N 07:44:17 42° WNW 07:47:44 10° SW visible
27 Jan 7.9 18:21:30 10° S 18:25:06 47° W 18:28:45 10° NNW visible
28 Jan 10.2 05:44:35 10° ENE 05:45:41 11° E 05:46:47 10° ESE visible
28 Jan 6.5 07:15:58 10° N 07:19:40 78° WNW 07:23:18 10° SSW visible
28 Jan 6.7 17:56:39 10° SSE 18:00:23 88° W 18:04:09 10° NNW visible
29 Jan 7.4 06:51:19 10° NNE 06:54:58 55° E 06:58:32 10° S visible
29 Jan 9.9 19:06:57 10° SW 19:09:28 17° W 19:12:00 10° NW visible
30 Jan 8.7 06:26:53 10° NNE 06:30:11 30° E 06:33:23 10° SSE visible
30 Jan 8.9 18:41:18 10° SSW 18:44:35 29° W 18:47:55 10° NNW visible
31 Jan 9.7 06:02:48 10° NE 06:05:17 17° E 06:07:44 10° SE visible
31 Jan 6.8 07:35:28 10° N 07:39:00 47° WNW 07:42:29 10° SW visible
31 Jan 7.6 18:16:09 10° S 18:19:48 53° W 18:23:29 10° NNW visible
01 Feb 6.5 07:10:41 10° NNE 07:14:22 88° W 07:17:58 10° SSW visible
01 Feb 10.4 19:28:00 10° WSW 19:29:05 11° W 19:30:09 10° WNW visible
